Hourly Weather Roundup
Issued by NWS Central Illinois

Home | Current Version | Previous Version | Text Only | Print | Product List | Glossary On
Versions: 1 2 3 4 5 6 7 8 9 10 11 12 13 14 15 16 17 18 19 20 21 22 23 24 25 26 27 28 29 30 31 32 33 34 35 36 37 38 39 40 41 42 43 44 45 46 47 48 49 50
000
NZUS43 KILX 030610
HWRILX

AREA WEATHER ROUNDUP
NATIONAL WEATHER SERVICE, LINCOLN IL
100 AM CDT TUE MAY 03 2016


CITY           SKY/WX    TMP DP  RH WIND       PRES   REMARKS
BLOOMINGTON    PTCLDY    46  43  90 CALM      30.03S
6HR MIN TEMP:  44; 6HR MAX TEMP:  56;

CHAMPAIGN      MOCLDY    45  44  97 N8        30.00F
6HR MIN TEMP:  44; 6HR MAX TEMP:  56;

DANVILLE       CLOUDY    47  45  94 N6        29.96F
6HR MIN TEMP:  45; 6HR MAX TEMP:  53;

DECATUR        CLOUDY    50  44  80 N5        30.01F
6HR MIN TEMP:  50; 6HR MAX TEMP:  55;

EFFINGHAM      CLOUDY    53  50  90 W6        30.01F
FLORA          CLOUDY    54  51  89 NW6       30.00S
6HR MIN TEMP:  54; 6HR MAX TEMP:  57;

GALESBURG      MOCLDY    47  45  91 CALM      30.02F
JACKSONVILLE   CLOUDY    51  48  90 CALM      30.02F
6HR MIN TEMP:  51; 6HR MAX TEMP:  55;

LACON          PTCLDY    43  40  90 CALM      30.02S
6HR MIN TEMP:  42; 6HR MAX TEMP:  57;

LAWRENCEVILLE  CLOUDY    53  51  93 NW6       29.98F
6HR MIN TEMP:  53; 6HR MAX TEMP:  56; 6HR PCP: TRACE;

LITCHFIELD     CLOUDY    51  48  89 NW3       30.02S
$$


CITY           SKY/WX    TMP DP  RH WIND       PRES   REMARKS
LINCOLN        CLOUDY    51  50  97 CALM      30.02S
6HR MIN TEMP:  51; 6HR MAX TEMP:  56;

MACOMB         CLOUDY    51  47  88 NW5       30.05S
MATTOON        CLOUDY    51  48  89 N5        29.98F
6HR MIN TEMP:  51; 6HR MAX TEMP:  55;

MT CARMEL AP   CLOUDY    54  50  87 NW6       29.98F
OLNEY-NOBLE AP CLOUDY    52  50  93 W7        29.99F
PARIS          CLOUDY    50  49  95 CALM      29.99F
6HR MIN TEMP:  50; 6HR MAX TEMP:  54;

PEORIA         CLEAR     48  43  82 CALM      30.02S
6HR MIN TEMP:  48; 6HR MAX TEMP:  56;

PONTIAC        PTCLDY    45  42  92 CALM      30.02F
RANTOUL        CLOUDY    49  45  84 N7        30.00F
6HR MIN TEMP:  48; 6HR MAX TEMP:  58;

ROBINSON       CLOUDY    52  51  97 CALM      29.98F
6HR MIN TEMP:  52; 6HR MAX TEMP:  54;

SPRINGFIELD    CLOUDY    52  48  86 NW3       30.02F
6HR MIN TEMP:  52; 6HR MAX TEMP:  56;

TAYLORVILLE    CLOUDY    51  47  86 NW6       30.02S
$$

...REGIONAL REPORTS...


CITY           SKY/WX    TMP DP  RH WIND       PRES   REMARKS
CHICAGO O`HARE CLEAR     44  35  70 CALM      30.00R
KANKAKEE       CLOUDY    48  38  69 CALM      30.02S
MOLINE         CLEAR     45  42  89 CALM      30.02S
MOUNT STERLING CLOUDY    49  47  91 NW5       30.03S
MOUNT VERNON   CLOUDY    54  46  76 CALM      30.01F
PITTSFIELD     CLOUDY    51  49  93 W3        30.05R
QUINCY         CLOUDY    49  47  93 NW3       30.03S
ROCKFORD       CLEAR     42  37  82 CALM      30.03S
$$


CITY           SKY/WX    TMP DP  RH WIND       PRES   REMARKS
BURLINGTON     CLOUDY    51  47  86 NW5       30.03S
CEDAR RAPIDS   CLEAR     46  42  86 W5        30.02F
DES MOINES     PTCLDY    48  40  73 CALM      30.05S
KIRKSVILLE     FOG       40  38  93 CALM      30.06R VSB 3/4
OTTUMWA        CLEAR     42  42 100 W5        30.05S
ST LOUIS       CLOUDY    54  49  83 NW3       30.03F
$$


CITY           SKY/WX    TMP DP  RH WIND       PRES   REMARKS
TERRE HAUTE    CLOUDY    52  49  89 NW5       29.97F
EVANSVILLE     CLOUDY    55  49  80 W5        29.98F
INDIANAPOLIS   LGT RAIN  51  49  92 N8        29.93F FOG
LAFAYETTE      CLOUDY    49  45  86 N3        29.98F
MADISON        CLEAR     47  38  71 S6        29.99F
MILWAUKEE      CLEAR     42  33  70 CALM      29.99F
$$





USA.gov is the U.S. government's official web portal to all federal, state and local government web resources and services.